Flag for U.S.A. Weather past 2 weeks in Atlanta, Georgia, U.S.A.

Now
66 °F

Clear.


Feels Like: 66 °F
Forecast: 63 / 90 °F
Wind: No wind

Location: Fulton County Airport-Brown Field

Current Time: Aug 29, 2014 at 2:16:27 AM

Latest Report: Aug 29, 2014 at 12:53 AM


Visibility: 10 mi

Pressure: 30.01 "Hg

Humidity: 87%

Dew point: 62 °F

Location of AtlantaLocation

Historic Weather in Atlanta — Graph

°F

Atlanta temperature yesterday

Maximum temperature yesterday: 91 °F (at 3:53 PM)
Minimum temperature yesterday: 63 °F (at 6:53 AM)
Average temperature yesterday: 76 °F

Past Weeks' High & Low Weather Summary

 TemperatureHumidityPressure
High92 °F (Aug 22, 3:53 PM)94% (Aug 15, 3:53 AM)30.15 "Hg (Aug 15, 3:53 AM)
Low61 °F (Aug 14, 5:53 AM)26% (Aug 28, 6:53 PM)29.85 "Hg (Aug 18, 4:53 PM)
Average77 °F72%30.00 "Hg
* Reported Aug 14 12:53 AM — Aug 29 12:53 AM, Atlanta, Weather by CustomWeather, © 2014

Note: Actual official high and low records may vary slightly from our data, if they occured in-between our weather recording intervals... More about our weather records

Advertising

Atlanta weather history for previous 24 hours

 ConditionsComfort  
Time TempWeatherWind HumidityBarometerVisibility
12:53 AM
Aug 29
66 °FClear.No wind87%30.01 "Hg10 mi
11:53 PM
Aug 28
68 °FClear.No wind84%30.00 "Hg10 mi
10:53 PM70 °FClear.3 mph79%30.00 "Hg10 mi
9:53 PM72 °FClear.No wind73%30.00 "Hg10 mi
8:53 PM74 °FSunny.No wind71%29.98 "Hg10 mi
7:53 PM80 °FSunny.No wind56%29.96 "Hg10 mi
6:53 PM91 °FSunny.5 mph26%29.96 "Hg10 mi
5:53 PM91 °FSunny.5 mph28%29.96 "Hg10 mi
4:53 PM90 °FSunny.No wind35%29.96 "Hg10 mi
3:53 PM91 °FSunny.6 mph34%29.97 "Hg10 mi
2:53 PM88 °FSunny.3 mph38%29.99 "Hg10 mi
1:53 PM87 °FSunny.3 mph37%30.01 "Hg10 mi
12:53 PM88 °FSunny.5 mph42%30.03 "Hg10 mi
11:53 AM86 °FSunny.6 mph45%30.04 "Hg10 mi
10:53 AM82 °FSunny.No wind63%30.05 "Hg10 mi
9:53 AM77 °FSunny.No wind69%30.05 "Hg10 mi
8:53 AM71 °FSunny.No wind81%30.05 "Hg10 mi
7:53 AM65 °FClear.No wind91%30.05 "Hg10 mi
6:53 AM63 °FClear.No wind90%30.03 "Hg10 mi
5:53 AM64 °FClear.No wind90%30.01 "Hg10 mi
4:53 AM64 °FClear.No wind94%30.01 "Hg10 mi
3:53 AM64 °FClear.No wind94%30.01 "Hg10 mi
2:53 AM66 °FClear.No wind90%30.01 "Hg10 mi
Weather by CustomWeather, © 2014

See weather overviewHow to use our weather pages